Le nostre stazioni meteo in Italia

Pubblicità
Il mio iltempo24.it
S. Valentino Alla Muta, Italia (16008): Temperatura & dewpoint: 11.02.2019 13:00:00 - 17.02.2019 13:00:00 (CET)S. Valentino Alla Muta, Italia (16008): velocità del vento: 11.02.2019 13:00:00 - 17.02.2019 13:00:00 (CET)S. Valentino Alla Muta, Italia (16008): direzione del vento: 11.02.2019 13:00:00 - 17.02.2019 13:00:00 (CET)S. Valentino Alla Muta, Italia (16008): visibility: 11.02.2019 13:00:00 - 17.02.2019 13:00:00 (CET)
Data & Tempo tt [°C] td [°C] ff [km/h] ff [kn] dd vv [km]
17.02.2019 13:00:00 9,2 -8,4 9 5 NNE 30
17.02.2019 12:00:00 2,6 -12,1 13 7 NNE 30
17.02.2019 11:00:00 1,8 -8,9 11 6 N 30
17.02.2019 10:00:00 -0,8 -8,0 13 7 N 30
17.02.2019 09:00:00 -3,8 -9,0 11 6 N 10
17.02.2019 08:00:00 -3,2 -8,6 9 5 N 10
17.02.2019 07:00:00 -3,2 -9,0 9 5 N 10
17.02.2019 06:00:00 -3,2 -8,6 9 5 N 10
17.02.2019 05:00:00 -3,0 -8,5 9 5 N 10
17.02.2019 04:00:00 -3,2 -8,5 9 5 NNE 10
17.02.2019 03:00:00 -3,0 -8,3 11 6 N 10
17.02.2019 02:00:00 -2,0 -7,9 9 5 N 10
17.02.2019 01:00:00 -2,0 -8,1 9 5 N 10
17.02.2019 00:00:00 0,8 -7,4 8 4 N 10
16.02.2019 23:00:00 0,8 -6,5 9 5 NNE 10
16.02.2019 22:00:00 0,4 -7,6 9 5 NNE 20
16.02.2019 21:00:00 1,0 -6,3 9 5 NNE 20
16.02.2019 20:00:00 1,8 -8,1 11 6 NNE 20
16.02.2019 19:00:00 3,8 -7,3 11 6 N 20
16.02.2019 18:00:00 5,0 -8,1 5 3 NNE 10
16.02.2019 17:00:00 - - - - - -
16.02.2019 16:00:00 10,0 -5,1 5 3 N 30
16.02.2019 15:00:00 9,0 -8,1 13 7 NNE 30
16.02.2019 14:00:00 8,8 -8,3 11 6 N 30
16.02.2019 13:00:00 8,0 -8,5 11 6 N 30
16.02.2019 12:00:00 5,6 -7,9 13 7 NNE 30
16.02.2019 11:00:00 3,0 -8,1 13 7 NNE 20
16.02.2019 10:00:00 -1,2 -5,4 13 7 N 10
16.02.2019 09:00:00 -5,0 -9,1 13 7 N 30
16.02.2019 08:00:00 -5,2 -8,8 11 6 N 30
16.02.2019 07:00:00 -4,4 -8,2 13 7 NNE 30
16.02.2019 06:00:00 - - - - - -
16.02.2019 05:00:00 - - - - - -
16.02.2019 04:00:00 -3,2 -7,7 13 7 NNE 20
16.02.2019 03:00:00 -3,0 -7,9 11 6 NNE 20
16.02.2019 02:00:00 -2,8 -8,1 11 6 NNE 20
16.02.2019 01:00:00 -2,8 -8,1 13 7 NNE 20
16.02.2019 00:00:00 -0,6 -7,0 13 7 NNE 20
15.02.2019 23:00:00 0,2 -6,9 9 5 NNE 20
15.02.2019 22:00:00 0,6 -5,6 9 5 NNE 20
15.02.2019 21:00:00 1,0 -6,8 11 6 NNE 30
15.02.2019 20:00:00 2,0 -9,9 13 7 NNO 30
15.02.2019 19:00:00 3,2 -8,8 13 7 N 30
15.02.2019 18:00:00 5,2 -8,0 9 5 N 30
15.02.2019 17:00:00 7,2 -8,8 9 5 N 30
15.02.2019 16:00:00 11,0 -10,5 11 6 N 30
15.02.2019 15:00:00 11,0 -13,0 9 5 N 10
15.02.2019 14:00:00 8,6 -14,4 9 5 N 30
15.02.2019 13:00:00 7,8 -11,5 15 8 NNO 30
15.02.2019 12:00:00 5,2 -12,3 16 9 NNO 30
15.02.2019 11:00:00 2,6 -10,0 16 9 NNO 30
15.02.2019 10:00:00 -0,2 -9,9 11 6 N 30
15.02.2019 09:00:00 -2,2 -10,3 13 7 N 30
15.02.2019 08:00:00 -3,6 -11,3 15 8 N 20
15.02.2019 07:00:00 -2,2 -10,0 13 7 N 20
15.02.2019 06:00:00 -2,2 -10,0 13 7 N 20
15.02.2019 05:00:00 - - - - - -
15.02.2019 04:00:00 -2,0 -10,1 13 7 NNE 20
15.02.2019 03:00:00 -2,0 -9,2 11 6 N 10
15.02.2019 02:00:00 -2,0 -9,2 11 6 N 10
15.02.2019 01:00:00 -1,8 -9,0 11 6 NNE 20
15.02.2019 00:00:00 -1,8 -9,0 11 6 N 20
14.02.2019 23:00:00 -1,0 -8,4 11 6 N 10
14.02.2019 22:00:00 -0,2 -7,9 13 7 N 20
14.02.2019 21:00:00 0,2 -8,7 13 7 N 20
14.02.2019 20:00:00 1,2 -9,4 15 8 N 20
14.02.2019 19:00:00 2,4 -9,8 15 8 NNE 20
14.02.2019 18:00:00 3,0 -9,9 13 7 NNE 20
14.02.2019 17:00:00 4,0 -9,7 11 6 NNE 20
14.02.2019 16:00:00 6,8 -9,6 13 7 NNE 20
14.02.2019 15:00:00 7,2 -11,0 9 5 N 20
14.02.2019 14:00:00 7,0 -11,2 9 5 N 20
14.02.2019 13:00:00 6,8 -10,9 15 8 N 20
14.02.2019 12:00:00 5,2 -10,2 13 7 N 20
14.02.2019 11:00:00 2,2 -8,8 15 8 N 20
14.02.2019 10:00:00 -2,4 -8,1 16 9 N 10
14.02.2019 09:00:00 -3,8 -8,3 16 9 N 30
14.02.2019 08:00:00 -4,0 -8,5 11 6 N 20
14.02.2019 07:00:00 -4,0 -8,1 13 7 N 20
14.02.2019 06:00:00 -4,2 -8,1 11 6 N 10
14.02.2019 05:00:00 -4,0 -7,6 11 6 NNE 10
14.02.2019 04:00:00 -4,0 -7,3 11 6 N 10
14.02.2019 03:00:00 - - - - - -
14.02.2019 02:00:00 - - - - - -
14.02.2019 01:00:00 -2,8 -6,1 11 6 N 10
14.02.2019 00:00:00 -3,0 -5,8 11 6 NNE 10
13.02.2019 23:00:00 -2,4 -5,4 9 5 N 12
13.02.2019 22:00:00 -1,6 -5,1 11 6 NNE 12
13.02.2019 21:00:00 -1,0 -5,4 11 6 NNE 12
13.02.2019 20:00:00 -0,4 -5,2 9 5 NNE 12
13.02.2019 19:00:00 0,6 -5,6 11 6 N 20
13.02.2019 18:00:00 1,2 -6,1 11 6 N 30
13.02.2019 17:00:00 1,8 -8,0 9 5 NNE 30
13.02.2019 16:00:00 4,4 -8,7 9 5 N 30
13.02.2019 15:00:00 4,8 -8,6 13 7 N 30
13.02.2019 14:00:00 4,2 -9,5 13 7 N 30
13.02.2019 13:00:00 4,0 -9,7 13 7 N 30
13.02.2019 12:00:00 2,4 -10,8 13 7 N 30
13.02.2019 11:00:00 0,8 -10,6 15 8 N 30
13.02.2019 10:00:00 -6,8 -11,0 15 8 N 30
13.02.2019 09:00:00 -7,0 -11,5 15 8 N 30
13.02.2019 08:00:00 -6,8 -11,2 11 6 N 20
13.02.2019 07:00:00 -5,8 -10,0 15 8 NNE 10
13.02.2019 06:00:00 -5,8 -10,4 11 6 NNE 10
13.02.2019 05:00:00 -5,8 -10,4 13 7 N 10
13.02.2019 04:00:00 -5,6 -9,8 18 10 NE 10
13.02.2019 03:00:00 -5,6 -9,8 15 8 NE 10
13.02.2019 02:00:00 -5,6 -9,5 9 5 N 10
13.02.2019 01:00:00 -5,6 -9,7 11 6 N 10
13.02.2019 00:00:00 -5,4 -9,0 13 7 NNE 10
12.02.2019 23:00:00 -5,6 -9,8 13 7 NNE 10
12.02.2019 22:00:00 -4,4 -11,2 18 10 N 10
12.02.2019 21:00:00 -2,8 -13,4 13 7 NNE 10
12.02.2019 20:00:00 -2,6 -15,3 11 6 NE 10
12.02.2019 19:00:00 -2,8 -16,5 9 5 NE 20
12.02.2019 18:00:00 -2,0 -16,9 11 6 NNE 30
12.02.2019 17:00:00 -1,4 -16,7 15 8 N 30
12.02.2019 16:00:00 -0,8 -16,2 15 8 N 30
12.02.2019 15:00:00 -0,8 -14,3 16 9 N 30
12.02.2019 14:00:00 -0,6 -14,5 15 8 N 30
12.02.2019 13:00:00 -0,4 -13,6 21 11 N 20
12.02.2019 12:00:00 -0,2 -13,8 21 11 N 30
12.02.2019 11:00:00 -1,2 -13,4 16 9 NNE 30
12.02.2019 10:00:00 -5,2 -10,2 13 7 NNE 30
12.02.2019 09:00:00 -7,0 -9,8 15 8 NNE 20
12.02.2019 08:00:00 -6,6 -9,2 11 6 NNE 20
12.02.2019 07:00:00 -6,0 -8,6 8 4 NNE 15
12.02.2019 06:00:00 -5,6 -8,3 9 5 NNE 10
12.02.2019 05:00:00 -5,6 -8,0 5 3 N 10
12.02.2019 04:00:00 -5,4 -7,1 8 4 NNE 10
12.02.2019 03:00:00 - - - - - -
12.02.2019 02:00:00 -5,0 -9,1 9 5 NNE 10
12.02.2019 01:00:00 -5,0 -8,7 8 4 NNE 10
12.02.2019 00:00:00 -5,0 -8,4 9 5 NNE 10
11.02.2019 23:00:00 -5,0 -8,4 8 4 NNE 10
11.02.2019 22:00:00 -5,0 -8,4 8 4 NNE 10
11.02.2019 21:00:00 -4,8 -9,8 13 7 NNE 10
11.02.2019 20:00:00 -4,4 -10,2 15 8 N 10
11.02.2019 19:00:00 -4,2 -9,8 15 8 N 10
11.02.2019 18:00:00 -4,0 -10,2 15 8 N 12
11.02.2019 17:00:00 -4,4 -8,7 18 10 N 10
11.02.2019 16:00:00 -2,6 -9,7 16 9 N 10
11.02.2019 15:00:00 -1,4 -10,0 16 9 N 10
11.02.2019 14:00:00 -1,0 -11,2 16 9 N 10
11.02.2019 13:00:00 -0,6 -11,1 16 9 NNE 10

tt = Temperatura
td = dewpoint
ff = velocità del vento
dd = direzione del vento
vv = visibility

Stazioni seguenti

WeatherPro
AMSI
MeteoEarth